CAPE
0 0 0 0 0 0 0 0 0 0 0 0 0 0 0 0 29 44 50 306 323 673 904 1387 1526 1316 830 292 88 58 17 0 0 15 8 63 38 3 0 0 1 0 0 4 0 18 17 24 28
0 0 0 0 0 0 0 0 0 0 0 0 0 0 3 5 4 81 113 286 396 752 1170 1080 1646 1389 665 328 93 32 1 0 0 0 5 1 0 0 0 0 0 0 0 0 0 4 4 4 4
0 0 0 0 0 0 0 0 0 0 0 0 0 0 3 11 24 81 149 338 560 954 1089 1209 1578 1282 807 321 99 38 1 0 0 0 0 0 0 0 0 0 0 0 0 0 0 1 2 4 0
0 0 0 0 0 0 0 0 0 0 0 0 0 0 0 7 61 68 187 581 751 969 971 1459 1610 1434 1057 696 150 72 25 0 0 0 4 0 0 0 0 0 0 0 0 0 0 0 0 0 0
0 0 0 0 0 0 0 0 0 0 0 0 0 0 0 16 16 110 566 800 898 1056 895 1346 1767 1552 1192 589 308 124 78 19 0 0 2 7 11 7 9 1 0 0 0 0 0 0 0 0 0
0 0 0 0 0 0 0 0 0 0 0 0 0 0 0 5 120 514 803 945 934 1191 1016 1126 1560 1600 1350 949 582 298 147 71 4 0 0 3 9 54 11 12 1 0 0 0 0 0 0 0 0
0 0 0 0 0 0 0 0 0 0 0 0 0 0 0 0 199 824 945 1058 1144 1234 1124 1037 1203 1298 1183 1131 964 738 334 175 42 0 6 14 22 25 38 31 4 0 0 0 0 2 0 0 0
0 0 0 0 0 0 0 0 0 0 0 0 0 0 0 0 269 881 1014 1152 1179 1284 1106 1056 1106 1071 1118 1052 968 866 672 427 174 43 61 24 1 112 192 69 30 0 0 0 5 4 0 1 1
0 0 0 0 0 0 0 0 0 0 0 0 0 0 0 0 139 833 954 1022 1104 1233 1152 1034 1275 1133 1125 1139 971 773 574 322 108 33 51 18 4 62 57 8 16 24 0 0 8 8 16 4 0
0 0 0 0 0 0 0 0 0 0 0 0 0 0 0 0 130 570 747 878 1037 1153 1351 1221 1310 1361 1193 1098 1264 992 686 420 168 6 18 16 0 0 0 0 0 0 0 0 0 0 0 0 15
2 0 0 0 0 0 0 0 0 0 0 0 0 0 0 0 3 137 328 419 744 986 1271 1341 1391 1530 1494 1383 1272 1206 960 578 366 60 13 4 0 0 0 0 0 0 0 5 0 6 10 1 0
0 0 0 0 0 0 0 0 0 0 0 0 0 0 0 0 0 24 258 299 381 691 1055 1307 1412 1519 1655 1369 1374 1242 1065 718 525 186 15 11 7 3 0 1 0 0 0 8 16 0 0 2 0
0 0 0 0 0 0 0 0 0 0 0 0 0 0 0 0 0 0 0 121 330 408 714 1119 1439 1499 1421 1417 1871 1283 1146 833 651 295 72 61 65 53 12 0 4 7 4 1 0 0 1 1 0
0 0 0 0 0 0 0 0 0 0 0 0 0 0 0 0 0 0 0 0 2 173 187 453 1240 1485 1485 1367 1284 1425 1206 909 827 394 138 106 85 36 8 0 2 7 3 2 2 0 0 0 0
0 0 0 0 0 0 0 0 0 0 0 0 0 0 0 0 0 0 0 0 0 0 0 0 152 1002 1435 1463 1298 1583 1159 994 949 536 265 86 101 36 2 4 8 1 1 0 0 0 0 0 0
0 0 0 0 0 0 0 0 0 0 0 0 0 0 0 0 0 0 0 0 0 0 0 0 0 12 881 1344 1635 1487 1254 1127 1104 663 337 219 78 59 7 15 1 1 0 0 0 0 0 0 0
0 0 0 0 0 0 0 0 0 0 0 0 0 0 0 0 0 0 0 0 0 0 0 0 0 0 248 1026 1351 1404 1238 1192 1186 816 398 199 155 61 23 19 3 3 0 0 0 0 0 0 0
0 0 0 0 0 0 0 0 0 0 0 0 0 0 0 0 0 0 0 0 0 0 0 0 0 4 275 730 1187 1333 1237 1285 918 421 332 265 212 85 95 33 0 0 0 0 0 0 0 0 0
0 0 0 0 0 0 0 0 0 0 0 0 0 0 0 0 0 0 0 0 0 0 0 0 0 83 418 668 935 1181 596 560 709 711 542 435 353 142 116 41 2 0 0 0 0 0 0 0 0
0 0 0 0 0 0 0 0 0 0 0 0 0 0 0 0 0 0 0 0 0 0 0 0 2 262 525 566 416 388 378 544 745 647 458 483 241 220 163 0 1 0 0 0 0 0 0 0 0
0 0 0 0 0 0 0 0 0 0 0 0 0 0 0 0 0 0 0 0 0 0 0 0 9 345 451 297 233 54 378 606 588 542 305 345 204 200 34 0 0 0 0 0 0 0 0 0 0
0 0 0 0 0 0 0 0 0 0 0 0 0 0 0 0 0 0 0 0 0 0 0 0 6 183 218 14 18 106 374 698 591 450 244 244 194 50 7 0 0 0 0 0 0 0 0 0 0
0 0 0 0 0 0 0 0 0 0 0 0 0 0 0 0 0 0 0 0 0 0 0 0 0 4 0 0 33 229 513 714 701 394 226 243 245 64 19 0 0 0 0 0 0 0 0 0 0
0 0 0 0 0 0 0 0 0 0 0 0 0 0 0 0 0 0 0 0 0 0 0 0 0 0 0 0 123 357 535 684 731 377 275 249 261 74 4 0 0 0 0 0 0 0 0 0 0
0 0 0 0 0 0 0 0 0 0 0 0 0 0 0 0 0 0 0 0 0 0 0 0 0 0 0 0 105 325 531 691 564 324 256 286 39 1 36 0 0 0 0 0 0 0 0 0 0
0 0 0 0 0 0 0 0 0 0 0 0 0 0 0 0 0 0 0 0 0 0 0 0 0 0 0 0 8 221 417 571 657 468 291 118 37 46 9 0 0 0 0 0 0 0 0 0 0
0 0 0 0 0 0 0 0 0 0 0 0 0 0 0 0 0 0 0 0 0 0 0 0 0 0 0 0 0 97 308 502 465 358 68 148 4 7 0 0 0 0 0 0 0 0 0 0 0
0 0 0 0 0 0 0 0 0 0 0 0 0 0 0 0 0 0 0 0 0 0 0 0 0 0 0 0 0 33 231 392 343 244 143 76 28 0 0 0 0 0 0 0 0 0 0 0 0
0 0 0 0 0 0 0 0 0 0 0 0 1 0 0 0 0 0 0 0 0 0 0 0 0 0 0 0 1 135 241 141 319 192 165 0 0 0 0 0 0 0 0 0 0 0 0 0 0
0 0 0 0 0 0 0 0 0 0 0 2 2 3 5 0 0 0 0 0 0 0 0 0 0 0 0 18 52 41 45 166 124 47 0 0 0 0 0 0 0 0 0 0 0 0 0 0 0
CIN
-0 -0 -0 -0 -0 -0 -0 -0 -0 -0 -0 -0 -0 -0 -0 -0 -11 -11 -345 -289 -272 -200 -128 -61 -46 -55 -91 -155 -184 -196 -260 -0 -0 -0 -0 -0 -0 -2 -0 -0 -0 -0 -0 -7 -0 -0 -0 -0 -0
-0 -0 -0 -0 -0 -0 -0 -0 -0 -0 -0 -0 -0 -0 -7 -16 -64 -170 -226 -306 -260 -180 -108 -96 -46 -46 -109 -141 -192 -260 -40 -0 -0 -0 -0 -0 -0 -0 -0 -0 -0 -0 -0 -0 -0 -0 -0 -0 -25
-0 -0 -0 -0 -0 -0 -0 -0 -0 -0 -0 -0 -0 -0 -5 -4 -154 -124 -244 -276 -232 -161 -115 -83 -47 -61 -89 -146 -206 -276 -33 -0 -0 -0 -0 -0 -0 -0 -0 -0 -0 -0 -0 -0 -0 -0 -1 -2 -0
-0 -0 -0 -0 -0 -0 -0 -0 -0 -0 -0 -0 -0 -0 -0 -10 -114 -189 -253 -228 -182 -149 -142 -95 -37 -40 -58 -81 -178 -231 -299 -0 -0 -0 -1 -0 -0 -0 -0 -0 -0 -0 -0 -0 -0 -0 -0 -0 -0
-0 -0 -0 -0 -0 -0 -0 -0 -0 -0 -0 -0 -0 -0 -0 -136 -239 -247 -203 -199 -147 -118 -134 -98 -29 -31 -40 -97 -135 -184 -210 -309 -0 -0 -3 -1 -5 -1 -7 -2 -0 -0 -0 -0 -0 -0 -0 -0 -0
-0 -0 -0 -0 -0 -0 -0 -0 -0 -0 -0 -0 -0 -0 -0 -61 -157 -170 -166 -159 -147 -108 -114 -96 -37 -19 -27 -48 -84 -117 -153 -222 -299 -0 -0 -7 -6 -120 -5 -9 -2 -0 -0 -0 -0 -0 -0 -0 -0
-0 -0 -0 -0 -0 -0 -0 -0 -0 -0 -0 -0 -0 -0 -0 -0 -133 -140 -149 -141 -139 -109 -106 -89 -47 -38 -36 -30 -38 -50 -96 -135 -275 -0 -238 -223 -254 -205 -144 -88 -4 -0 -0 -0 -0 -0 -0 -0 -0
-0 -0 -0 -0 -0 -0 -0 -0 -0 -0 -0 -0 -0 -0 -0 -0 -153 -118 -125 -122 -124 -111 -113 -90 -67 -46 -30 -32 -35 -33 -41 -67 -113 -219 -169 -245 -19 -107 -33 -112 -167 -0 -0 -0 -0 -0 -0 -10 -10
-0 -0 -0 -0 -0 -0 -0 -0 -0 -0 -0 -0 -0 -0 -0 -0 -187 -106 -106 -111 -110 -105 -103 -97 -57 -51 -23 -16 -27 -40 -56 -86 -161 -244 -193 -199 -45 -135 -127 -155 -165 -112 -0 -0 -126 -234 -190 -91 -0
-0 -0 -0 -0 -0 -0 -0 -0 -0 -0 -0 -0 -0 -0 -0 -0 -159 -83 -68 -61 -87 -91 -75 -73 -42 -24 -23 -15 -5 -14 -35 -59 -120 -206 -247 -236 -0 -0 -0 -0 -0 -0 -0 -0 -0 -0 -0 -0 -0
-0 -0 -0 -0 -0 -0 -0 -0 -0 -0 -0 -0 -0 -0 -0 -0 -21 -114 -72 -56 -42 -53 -64 -62 -38 -16 -2 -1 -0 -0 -7 -33 -58 -190 -255 -220 -0 -0 -0 -0 -0 -0 -0 -0 -0 -0 -0 -0 -0
-0 -0 -0 -0 -0 -0 -0 -0 -0 -0 -0 -0 -0 -0 -0 -0 -0 -41 -80 -63 -49 -60 -55 -58 -41 -42 -15 -14 -3 -0 -3 -29 -45 -112 -262 -257 -239 -212 -0 -0 -0 -0 -0 -22 -69 -0 -0 -0 -0
-0 -0 -0 -0 -0 -0 -0 -0 -0 -0 -0 -0 -0 -0 -0 -0 -0 -0 -0 -119 -79 -71 -61 -53 -48 -47 -59 -40 -0 -4 -0 -16 -32 -85 -171 -157 -133 -122 -157 -0 -66 -0 -0 -0 -0 -0 -0 -0 -0
-0 -0 -0 -0 -0 -0 -0 -0 -0 -0 -0 -0 -0 -0 -0 -0 -0 -0 -0 -0 -11 -100 -94 -63 -49 -51 -56 -76 -60 -15 -2 -7 -11 -49 -116 -107 -119 -166 -14 -1 -16 -10 -2 -1 -0 -0 -0 -0 -0
-0 -0 -0 -0 -0 -0 -0 -0 -0 -0 -0 -0 -0 -0 -0 -0 -0 -0 -0 -0 -0 -5 -0 -0 -126 -69 -68 -63 -67 -12 -6 -3 -0 -19 -71 -174 -141 -182 -0 -27 -22 -1 -0 -0 -0 -0 -0 -0 -0
-0 -0 -0 -0 -0 -0 -0 -0 -0 -0 -0 -0 -0 -0 -0 -0 -0 -0 -0 -0 -0 -0 -0 -0 -0 -87 -95 -72 -35 -18 -9 -0 -0 -3 -59 -89 -122 -121 -13 -37 -0 -1 -0 -0 -0 -0 -0 -0 -0
-0 -0 -0 -0 -0 -0 -0 -0 -0 -0 -0 -0 -0 -0 -0 -0 -0 -0 -0 -0 -0 -0 -0 -0 -0 -0 -152 -97 -39 -13 -7 -0 -0 -0 -25 -71 -76 -107 -77 -54 -4 -2 -0 -0 -0 -0 -0 -0 -0
-0 -0 -0 -0 -0 -0 -0 -0 -0 -0 -0 -0 -0 -0 -0 -0 -0 -0 -0 -0 -0 -0 -0 -0 -0 -152 -175 -124 -46 -17 -1 -0 -7 -27 -20 -25 -37 -52 -37 -37 -0 -1 -0 -0 -0 -0 -0 -0 -0
-0 -0 -0 -0 -0 -0 -0 -0 -0 -0 -0 -0 -0 -0 -0 -0 -0 -0 -0 -0 -0 -0 -0 -0 -0 -263 -172 -142 -72 -41 -75 -67 -35 -10 -4 -2 -3 -16 -20 -14 -4 -0 -0 -0 -0 -0 -0 -0 -0
-0 -0 -0 -0 -0 -0 -0 -0 -0 -0 -0 -0 -0 -0 -0 -0 -0 -0 -0 -0 -0 -0 -0 -0 -87 -215 -190 -153 -157 -108 -96 -68 -41 -23 -13 -1 -4 -1 -7 -0 -4 -0 -0 -0 -0 -0 -0 -0 -0
-0 -0 -0 -0 -0 -0 -0 -0 -0 -0 -0 -0 -0 -0 -0 -0 -0 -0 -0 -0 -0 -0 -0 -0 -219 -210 -228 -214 -188 -265 -103 -64 -44 -19 -18 -7 -3 -0 -4 -0 -0 -0 -0 -0 -0 -0 -0 -0 -0
-0 -0 -0 -0 -0 -0 -0 -0 -0 -0 -0 -0 -0 -0 -0 -0 -0 -0 -0 -0 -0 -0 -0 -0 -111 -278 -278 -304 -246 -179 -106 -57 -37 -13 -21 -11 -2 -4 -6 -0 -0 -0 -0 -0 -0 -0 -0 -0 -0
-0 -0 -0 -0 -0 -0 -0 -0 -0 -0 -0 -0 -0 -0 -0 -0 -0 -0 -0 -0 -0 -0 -0 -0 -0 -454 -0 -0 -247 -147 -64 -11 -7 -18 -16 -7 -0 -0 -6 -0 -0 -0 -0 -0 -0 -0 -0 -0 -0
-0 -0 -0 -0 -0 -0 -0 -0 -0 -0 -0 -0 -0 -0 -0 -0 -0 -0 -0 -0 -0 -0 -0 -0 -0 -0 -0 -21 -201 -129 -59 -20 -6 -7 -9 -4 -0 -0 -2 -0 -0 -0 -0 -0 -0 -0 -0 -0 -0
-0 -0 -0 -0 -0 -0 -0 -0 -0 -0 -0 -0 -0 -0 -0 -0 -0 -0 -0 -0 -0 -0 -0 -0 -0 -0 -0 -0 -209 -141 -42 -0 -3 -11 -14 -0 -2 -7 -0 -0 -0 -0 -0 -0 -0 -0 -0 -0 -0
-0 -0 -0 -0 -0 -0 -0 -0 -0 -0 -0 -0 -0 -0 -0 -0 -0 -0 -0 -0 -0 -0 -0 -0 -0 -0 -0 -0 -104 -133 -48 -2 -0 -0 -3 -4 -7 -3 -2 -0 -0 -0 -0 -0 -0 -0 -0 -0 -0
-0 -0 -0 -0 -0 -0 -0 -0 -0 -0 -0 -0 -0 -0 -0 -0 -0 -0 -0 -0 -0 -0 -0 -0 -0 -0 -0 -0 -0 -159 -60 -9 -0 -2 -14 -0 -0 -0 -0 -0 -0 -0 -0 -0 -0 -0 -0 -0 -0
-0 -0 -0 -0 -0 -0 -0 -0 -0 -0 -0 -0 -0 -0 -0 -0 -0 -0 -0 -0 -0 -0 -0 -0 -0 -0 -0 -0 -0 -163 -50 -11 -6 -0 -0 -0 -3 -0 -0 -0 -0 -0 -0 -0 -0 -0 -0 -0 -0
-0 -0 -0 -0 -0 -0 -0 -0 -0 -0 -0 -0 -49 -0 -0 -0 -0 -0 -0 -0 -0 -0 -0 -0 -0 -0 -0 -0 -33 -82 -41 -24 -0 -0 -0 -0 -0 -0 -0 -0 -0 -0 -0 -0 -0 -0 -0 -0 -0
-0 -0 -0 -0 -0 -0 -0 -0 -0 -0 -0 -21 -52 -11 -11 -22 -0 -0 -0 -0 -0 -0 -0 -0 -0 -0 -0 -118 -101 -85 -51 -8 -1 -0 -0 -0 -0 -0 -0 -0 -0 -0 -0 -0 -0 -0 -0 -0 -0
Wind_Speed
nan nan nan nan nan nan nan nan nan nan nan nan nan nan nan nan nan nan nan 24 21 26 26 25 25 29 29 30 nan nan nan nan nan nan nan nan nan nan nan nan nan nan nan nan nan nan nan nan nan
nan nan nan nan nan nan nan nan nan nan nan nan nan nan nan nan nan nan 29 25 22 25 23 24 28 30 31 29 nan nan nan nan nan nan nan nan nan nan nan nan nan nan nan nan nan nan nan nan nan
nan nan nan nan nan nan nan nan nan nan nan nan nan nan nan nan nan nan 27 28 29 26 25 28 27 29 29 28 nan nan nan nan nan nan nan nan nan nan nan nan nan nan nan nan nan nan nan nan nan
nan nan nan nan nan nan nan nan nan nan nan nan nan nan nan nan nan nan 26 24 28 29 29 36 29 30 28 28 27 nan nan nan nan nan nan nan nan nan nan nan nan nan nan nan nan nan nan nan nan
nan nan nan nan nan nan nan nan nan nan nan nan nan nan nan nan nan 25 28 27 28 29 25 31 30 32 30 28 27 26 nan nan nan nan nan nan nan nan nan nan nan nan nan nan nan nan nan nan nan
nan nan nan nan nan nan nan nan nan nan nan nan nan nan nan nan 24 26 27 28 29 29 29 30 27 29 29 27 27 27 26 nan nan nan nan nan nan nan nan nan nan nan nan nan nan nan nan nan nan
nan nan nan nan nan nan nan nan nan nan nan nan nan nan nan nan 30 29 28 28 29 28 28 28 27 29 28 26 25 26 25 25 nan nan nan nan nan nan nan nan nan nan nan nan nan nan nan nan nan
nan nan nan nan nan nan nan nan nan nan nan nan nan nan nan nan 32 31 30 29 29 28 27 26 28 28 24 25 24 24 25 24 25 nan nan nan nan 27 26 nan nan nan nan nan nan nan nan nan nan
nan nan nan nan nan nan nan nan nan nan nan nan nan nan nan nan 35 32 31 29 28 26 25 26 27 25 23 23 24 23 24 25 25 nan nan nan nan nan nan nan nan nan nan nan nan nan nan nan nan
nan nan nan nan nan nan nan nan nan nan nan nan nan nan nan nan 33 31 29 28 27 26 25 26 25 25 24 26 26 21 23 21 21 nan nan nan nan nan nan nan nan nan nan nan nan nan nan nan nan
nan nan nan nan nan nan nan nan nan nan nan nan nan nan nan nan nan 30 29 28 29 28 28 25 27 27 26 26 26 24 24 22 23 nan nan nan nan nan nan nan nan nan nan nan nan nan nan nan nan
nan nan nan nan nan nan nan nan nan nan nan nan nan nan nan nan nan nan 29 30 30 28 27 27 26 29 27 28 27 24 24 24 24 25 nan nan nan nan nan nan nan nan nan nan nan nan nan nan nan
nan nan nan nan nan nan nan nan nan nan nan nan nan nan nan nan nan nan nan 29 29 26 26 26 25 28 31 30 30 27 26 25 24 27 nan nan nan nan nan nan nan nan nan nan nan nan nan nan nan
nan nan nan nan nan nan nan nan nan nan nan nan nan nan nan nan nan nan nan nan nan 27 27 25 24 25 29 30 32 31 30 28 26 28 29 30 nan nan nan nan nan nan nan nan nan nan nan nan nan
nan nan nan nan nan nan nan nan nan nan nan nan nan nan nan nan nan nan nan nan nan nan nan nan 25 25 25 29 30 30 31 32 29 29 32 nan 31 nan nan nan nan nan nan nan nan nan nan nan nan
nan nan nan nan nan nan nan nan nan nan nan nan nan nan nan nan nan nan nan nan nan nan nan nan nan nan 26 28 30 30 31 31 31 30 31 34 nan nan nan nan nan nan nan nan nan nan nan nan nan
nan nan nan nan nan nan nan nan nan nan nan nan nan nan nan nan nan nan nan nan nan nan nan nan nan nan 27 28 29 31 32 30 33 30 32 37 35 nan nan nan nan nan nan nan nan nan nan nan nan
nan nan nan nan nan nan nan nan nan nan nan nan nan nan nan nan nan nan nan nan nan nan nan nan nan nan 34 33 31 31 34 32 34 34 34 40 39 nan nan nan nan nan nan nan nan nan nan nan nan
nan nan nan nan nan nan nan nan nan nan nan nan nan nan nan nan nan nan nan nan nan nan nan nan nan nan 38 36 32 33 34 37 39 39 41 41 43 43 38 nan nan nan nan nan nan nan nan nan nan
nan nan nan nan nan nan nan nan nan nan nan nan nan nan nan nan nan nan nan nan nan nan nan nan nan 39 40 38 35 33 39 41 41 42 41 41 44 44 40 nan nan nan nan nan nan nan nan nan nan
nan nan nan nan nan nan nan nan nan nan nan nan nan nan nan nan nan nan nan nan nan nan nan nan nan 35 42 42 41 nan 43 42 40 41 40 40 45 46 nan nan nan nan nan nan nan nan nan nan nan
nan nan nan nan nan nan nan nan nan nan nan nan nan nan nan nan nan nan nan nan nan nan nan nan nan 35 39 nan nan 38 39 40 38 41 43 41 43 nan nan nan nan nan nan nan nan nan nan nan nan
nan nan nan nan nan nan nan nan nan nan nan nan nan nan nan nan nan nan nan nan nan nan nan nan nan nan nan nan nan 38 40 42 43 40 43 43 42 nan nan nan nan nan nan nan nan nan nan nan nan
nan nan nan nan nan nan nan nan nan nan nan nan nan nan nan nan nan nan nan nan nan nan nan nan nan nan nan nan 42 41 43 45 43 41 39 40 40 nan nan nan nan nan nan nan nan nan nan nan nan
nan nan nan nan nan nan nan nan nan nan nan nan nan nan nan nan nan nan nan nan nan nan nan nan nan nan nan nan 40 45 43 43 45 42 40 41 nan nan nan nan nan nan nan nan nan nan nan nan nan
nan nan nan nan nan nan nan nan nan nan nan nan nan nan nan nan nan nan nan nan nan nan nan nan nan nan nan nan nan 42 45 42 43 45 43 42 nan nan nan nan nan nan nan nan nan nan nan nan nan
nan nan nan nan nan nan nan nan nan nan nan nan nan nan nan nan nan nan nan nan nan nan nan nan nan nan nan nan nan nan 44 45 46 47 nan 42 nan nan nan nan nan nan nan nan nan nan nan nan nan
nan nan nan nan nan nan nan nan nan nan nan nan nan nan nan nan nan nan nan nan nan nan nan nan nan nan nan nan nan nan 45 46 46 46 45 nan nan nan nan nan nan nan nan nan nan nan nan nan nan
nan nan nan nan nan nan nan nan nan nan nan nan nan nan nan nan nan nan nan nan nan nan nan nan nan nan nan nan nan 48 46 46 46 44 46 nan nan nan nan nan nan nan nan nan nan nan nan nan nan
nan nan nan nan nan nan nan nan nan nan nan nan nan nan nan nan nan nan nan nan nan nan nan nan nan nan nan nan nan nan nan 46 46 nan nan nan nan nan nan nan nan nan nan nan nan nan nan nan nan
Wind_Direction
nan nan nan nan nan nan nan nan nan nan nan nan nan nan nan nan nan nan nan 257 261 286 288 294 287 280 278 281 nan nan nan nan nan nan nan nan nan nan nan nan nan nan nan nan nan nan nan nan nan
nan nan nan nan nan nan nan nan nan nan nan nan nan nan nan nan nan nan 275 270 275 282 285 287 281 283 283 282 nan nan nan nan nan nan nan nan nan nan nan nan nan nan nan nan nan nan nan nan nan
nan nan nan nan nan nan nan nan nan nan nan nan nan nan nan nan nan nan 255 275 285 286 284 278 279 279 281 284 nan nan nan nan nan nan nan nan nan nan nan nan nan nan nan nan nan nan nan nan nan
nan nan nan nan nan nan nan nan nan nan nan nan nan nan nan nan nan nan 268 273 276 292 292 283 289 284 280 280 281 nan nan nan nan nan nan nan nan nan nan nan nan nan nan nan nan nan nan nan nan
nan nan nan nan nan nan nan nan nan nan nan nan nan nan nan nan nan 259 277 275 283 285 279 289 289 289 285 283 282 282 nan nan nan nan nan nan nan nan nan nan nan nan nan nan nan nan nan nan nan
nan nan nan nan nan nan nan nan nan nan nan nan nan nan nan nan 259 265 274 275 277 287 288 286 282 287 289 291 289 284 282 nan nan nan nan nan nan nan nan nan nan nan nan nan nan nan nan nan nan
nan nan nan nan nan nan nan nan nan nan nan nan nan nan nan nan 250 262 266 268 273 283 289 289 289 286 285 287 288 288 285 280 nan nan nan nan nan nan nan nan nan nan nan nan nan nan nan nan nan
nan nan nan nan nan nan nan nan nan nan nan nan nan nan nan nan 252 260 264 266 270 277 286 282 283 284 286 287 284 281 281 280 280 nan nan nan nan 257 271 nan nan nan nan nan nan nan nan nan nan
nan nan nan nan nan nan nan nan nan nan nan nan nan nan nan nan 253 258 262 266 269 270 279 281 280 277 276 275 276 275 278 281 282 nan nan nan nan nan nan nan nan nan nan nan nan nan nan nan nan
nan nan nan nan nan nan nan nan nan nan nan nan nan nan nan nan 256 259 263 269 272 273 274 278 278 273 271 265 271 271 275 280 286 nan nan nan nan nan nan nan nan nan nan nan nan nan nan nan nan
nan nan nan nan nan nan nan nan nan nan nan nan nan nan nan nan nan 250 253 257 268 274 273 272 272 268 267 266 264 263 267 272 276 nan nan nan nan nan nan nan nan nan nan nan nan nan nan nan nan
nan nan nan nan nan nan nan nan nan nan nan nan nan nan nan nan nan nan 251 252 259 267 276 277 272 269 269 261 262 265 266 273 277 285 nan nan nan nan nan nan nan nan nan nan nan nan nan nan nan
nan nan nan nan nan nan nan nan nan nan nan nan nan nan nan nan nan nan nan 246 254 261 266 271 273 274 272 275 270 270 273 277 283 286 nan nan nan nan nan nan nan nan nan nan nan nan nan nan nan
nan nan nan nan nan nan nan nan nan nan nan nan nan nan nan nan nan nan nan nan nan 257 261 265 270 273 275 276 281 275 281 284 284 286 283 275 nan nan nan nan nan nan nan nan nan nan nan nan nan
nan nan nan nan nan nan nan nan nan nan nan nan nan nan nan nan nan nan nan nan nan nan nan nan 262 268 273 275 276 277 278 283 282 280 282 nan 270 nan nan nan nan nan nan nan nan nan nan nan nan
nan nan nan nan nan nan nan nan nan nan nan nan nan nan nan nan nan nan nan nan nan nan nan nan nan nan 272 274 277 276 278 283 277 273 273 275 nan nan nan nan nan nan nan nan nan nan nan nan nan
nan nan nan nan nan nan nan nan nan nan nan nan nan nan nan nan nan nan nan nan nan nan nan nan nan nan 271 274 272 274 282 283 275 269 268 270 271 nan nan nan nan nan nan nan nan nan nan nan nan
nan nan nan nan nan nan nan nan nan nan nan nan nan nan nan nan nan nan nan nan nan nan nan nan nan nan 266 268 273 274 274 278 271 268 265 267 264 nan nan nan nan nan nan nan nan nan nan nan nan
nan nan nan nan nan nan nan nan nan nan nan nan nan nan nan nan nan nan nan nan nan nan nan nan nan nan 261 265 272 275 274 271 270 265 269 267 265 266 264 nan nan nan nan nan nan nan nan nan nan
nan nan nan nan nan nan nan nan nan nan nan nan nan nan nan nan nan nan nan nan nan nan nan nan nan 257 260 259 264 269 270 263 265 265 269 270 268 266 264 nan nan nan nan nan nan nan nan nan nan
nan nan nan nan nan nan nan nan nan nan nan nan nan nan nan nan nan nan nan nan nan nan nan nan nan 257 260 261 260 nan 264 263 261 266 265 267 268 266 nan nan nan nan nan nan nan nan nan nan nan
nan nan nan nan nan nan nan nan nan nan nan nan nan nan nan nan nan nan nan nan nan nan nan nan nan 260 264 nan nan 274 269 270 261 268 264 266 267 nan nan nan nan nan nan nan nan nan nan nan nan
nan nan nan nan nan nan nan nan nan nan nan nan nan nan nan nan nan nan nan nan nan nan nan nan nan nan nan nan nan 268 271 268 262 264 269 267 268 nan nan nan nan nan nan nan nan nan nan nan nan
nan nan nan nan nan nan nan nan nan nan nan nan nan nan nan nan nan nan nan nan nan nan nan nan nan nan nan nan 270 272 277 277 270 271 269 266 266 nan nan nan nan nan nan nan nan nan nan nan nan
nan nan nan nan nan nan nan nan nan nan nan nan nan nan nan nan nan nan nan nan nan nan nan nan nan nan nan nan 273 270 276 279 278 275 272 275 nan nan nan nan nan nan nan nan nan nan nan nan nan
nan nan nan nan nan nan nan nan nan nan nan nan nan nan nan nan nan nan nan nan nan nan nan nan nan nan nan nan nan 267 271 267 266 269 270 270 nan nan nan nan nan nan nan nan nan nan nan nan nan
nan nan nan nan nan nan nan nan nan nan nan nan nan nan nan nan nan nan nan nan nan nan nan nan nan nan nan nan nan nan 268 268 268 266 nan 268 nan nan nan nan nan nan nan nan nan nan nan nan nan
nan nan nan nan nan nan nan nan nan nan nan nan nan nan nan nan nan nan nan nan nan nan nan nan nan nan nan nan nan nan 266 265 266 266 270 nan nan nan nan nan nan nan nan nan nan nan nan nan nan
nan nan nan nan nan nan nan nan nan nan nan nan nan nan nan nan nan nan nan nan nan nan nan nan nan nan nan nan nan 264 263 266 267 270 274 nan nan nan nan nan nan nan nan nan nan nan nan nan nan
nan nan nan nan nan nan nan nan nan nan nan nan nan nan nan nan nan nan nan nan nan nan nan nan nan nan nan nan nan nan nan 265 269 nan nan nan nan nan nan nan nan nan nan nan nan nan nan nan nan